Location: Dentlein
(49.1477°N, 10.4231°E)
Time: 20:24:06
(UTC+00:00)

Cosmos 1980 Rocket - Visible Passes

Search period start: 16 March 2026 00:00
Search period end: 26 March 2026 00:00
Orbit: 828 x 849 km, 71.0° (Epoch: 16 March)

Date Brightness Start Highest point End Pass type
(mag) Time Alt. Az. Time Alt. Az. Time Alt. Az.
16 Mar 4.8 01:32:53 10° NNW 01:33:30 10° NNW 01:34:06 10° NNW visible
16 Mar 4.5 23:34:36 19° N 23:34:36 19° N 23:36:23 10° NNE visible
17 Mar 4.8 01:16:18 10° NNW 01:17:19 10° NNW 01:18:24 10° N visible
17 Mar 4.7 04:47:48 10° N 04:51:11 16° NNE 04:54:33 10° ENE visible
17 Mar 4.5 23:18:27 19° N 23:18:27 19° N 23:20:20 10° NNE visible
18 Mar 4.8 01:00:10 10° NNW 01:01:07 11° NNW 01:02:34 10° N visible
18 Mar 4.7 04:31:46 10° N 04:35:01 15° NNE 04:38:14 10° ENE visible
18 Mar 4.4 23:02:15 20° N 23:02:15 20° N 23:04:17 10° NNE visible
19 Mar 4.8 00:43:57 11° NW 00:44:56 11° NNW 00:46:39 10° N visible
19 Mar 4.8 04:15:45 10° N 04:18:50 15° NNE 04:21:55 10° ENE visible
19 Mar 4.3 22:45:59 22° N 22:45:59 22° N 22:48:13 10° NNE visible
20 Mar 4.8 00:27:41 11° NW 00:28:45 12° NNW 00:30:43 10° N visible
20 Mar 4.8 03:59:44 10° N 04:02:41 14° NNE 04:05:36 10° ENE visible
20 Mar 4.6 20:47:57 11° NE 20:47:57 11° NE 20:48:07 10° NE visible
20 Mar 4.2 22:29:38 24° N 22:29:38 24° N 22:32:09 10° NNE visible
21 Mar 4.8 00:11:19 11° NW 00:12:34 12° NNW 00:14:46 10° N visible
21 Mar 4.9 03:43:44 10° N 03:46:30 14° NNE 03:49:16 10° ENE visible
21 Mar 4.4 20:31:28 12° NE 20:31:28 12° NE 20:31:59 10° NE visible
21 Mar 3.9 22:13:09 28° N 22:13:09 28° N 22:16:06 10° NNE visible
21 Mar 4.8 23:54:49 11° NW 23:56:23 13° NNW 23:58:47 10° N visible
22 Mar 4.9 03:27:44 10° N 03:30:19 13° NNE 03:32:55 10° NE visible
22 Mar 4.1 20:14:49 15° NE 20:14:49 15° NE 20:15:51 10° NE visible
22 Mar 3.7 21:56:28 33° N 21:56:28 33° N 22:00:02 10° NNE visible
22 Mar 4.8 23:38:08 11° NW 23:40:13 13° NNW 23:42:47 10° N visible
23 Mar 5.0 03:11:44 10° N 03:14:09 13° NNE 03:16:33 10° NE visible
23 Mar 3.8 19:57:52 19° NE 19:57:52 19° NE 19:59:43 10° NE visible
23 Mar 3.3 21:39:30 42° NNW 21:39:30 42° NNW 21:43:57 10° NNE visible
23 Mar 4.9 23:21:18 10° WNW 23:24:02 14° NNW 23:26:47 10° N visible
24 Mar 5.0 02:55:45 10° N 02:57:58 12° NNE 03:00:11 10° NE visible
24 Mar 3.8 04:38:21 10° NNW 04:43:40 39° NE 04:48:58 10° ESE visible
24 Mar 3.2 19:40:22 27° ENE 19:40:22 27° ENE 19:43:34 10° NE visible
24 Mar 3.0 21:21:55 47° WNW 21:22:24 48° NW 21:27:53 10° NNE visible
24 Mar 4.9 23:04:58 10° WNW 23:07:52 14° NNW 23:10:47 10° N visible
25 Mar 5.1 02:39:47 10° N 02:41:47 12° NNE 02:43:47 10° NE visible
25 Mar 3.9 04:22:18 10° NNW 04:27:33 37° NE 04:32:47 10° ESE visible
25 Mar 2.9 19:20:43 25° SE 19:22:34 30° ESE 19:27:25 10° NE visible
25 Mar 2.9 21:01:40 14° SW 21:06:18 51° NW 21:11:49 10° NNE visible
25 Mar 4.9 22:48:38 10° WNW 22:51:41 15° NNW 22:54:47 10° N visible
